TimeEDT,TemperatureF,Dew PointF,Humidity,Sea Level PressureIn,VisibilityMPH,Wind Direction,Wind SpeedMPH,Gust SpeedMPH,PrecipitationIn,Events,Conditions,WindDirDegrees,DateUTC
12:53 AM,35.1,12.9,40,30.27,10.0,NW,5.8,-,N/A,,Clear,320,2013-04-04 04:53:00
1:53 AM,34.0,12.9,42,30.25,10.0,NNW,4.6,-,N/A,,Clear,340,2013-04-04 05:53:00
2:53 AM,34.0,12.9,42,30.25,10.0,NW,4.6,-,N/A,,Clear,320,2013-04-04 06:53:00
3:53 AM,34.0,15.1,46,30.27,10.0,WNW,5.8,-,N/A,,Clear,290,2013-04-04 07:53:00
4:53 AM,34.0,17.1,50,30.30,10.0,WNW,5.8,-,N/A,,Clear,300,2013-04-04 08:53:00
5:53 AM,34.0,17.1,50,30.32,10.0,West,6.9,-,N/A,,Clear,280,2013-04-04 09:53:00
6:53 AM,34.0,17.1,50,30.35,10.0,West,6.9,-,N/A,,Clear,270,2013-04-04 10:53:00
7:53 AM,36.0,17.1,46,30.38,10.0,West,6.9,-,N/A,,Clear,280,2013-04-04 11:53:00
8:53 AM,37.0,17.1,44,30.37,10.0,West,4.6,-,N/A,,Clear,280,2013-04-04 12:53:00
9:53 AM,39.0,17.1,41,30.34,10.0,SW,3.5,-,N/A,,Clear,220,2013-04-04 13:53:00
10:53 AM,41.0,21.0,45,30.34,10.0,SSW,9.2,-,N/A,,Scattered Clouds,210,2013-04-04 14:53:00
11:53 AM,42.1,21.0,43,30.32,10.0,SW,8.1,18.4,N/A,,Clear,220,2013-04-04 15:53:00
12:53 PM,44.1,21.0,40,30.30,10.0,SW,10.4,-,N/A,,Clear,230,2013-04-04 16:53:00
1:53 PM,45.0,21.0,39,30.27,10.0,SW,8.1,-,N/A,,Clear,230,2013-04-04 17:53:00
2:53 PM,46.9,21.9,37,30.24,10.0,SSW,8.1,-,N/A,,Clear,210,2013-04-04 18:53:00
3:53 PM,46.9,25.0,42,30.20,10.0,South,10.4,-,N/A,,Clear,170,2013-04-04 19:53:00
4:53 PM,45.0,27.0,49,30.18,10.0,South,8.1,-,N/A,,Mostly Cloudy,170,2013-04-04 20:53:00
5:53 PM,44.1,28.0,53,30.17,10.0,South,8.1,-,N/A,,Clear,170,2013-04-04 21:53:00
6:53 PM,43.0,30.0,60,30.17,10.0,SSW,8.1,-,N/A,,Overcast,200,2013-04-04 22:53:00
7:53 PM,42.1,30.9,65,30.19,10.0,SW,6.9,-,N/A,,Overcast,220,2013-04-04 23:53:00
8:53 PM,42.1,30.9,65,30.16,10.0,SSW,10.4,-,N/A,,Overcast,210,2013-04-05 00:53:00
9:53 PM,41.0,32.0,70,30.14,10.0,SSW,4.6,-,N/A,,Clear,210,2013-04-05 01:53:00
10:53 PM,42.1,33.1,70,30.12,10.0,SSW,5.8,-,N/A,,Clear,210,2013-04-05 02:53:00
11:53 PM,42.1,32.0,67,30.10,10.0,SW,8.1,-,N/A,,Clear,220,2013-04-05 03:53:00